www.pogodaiklimat.ru

Погода и климат >> Архив погоды >> Россия >> Чукотка >> Илирней


АРХИВ ПОГОДЫ в Илирнее

Время (UTC), дата Ветер
(напр.,м/с)
 
Видим.   Явления Облачность Т
(С)
Тd
(С)
f
(%)
Тe
(С)
Тes
(С)
Комфортность P
(гПа)
Po
(гПа)
Тmin
(С)
Tmax
(С)
R
(мм)
R24
(мм)
S
(см)
06 18.08 В 4
{9}
50 км 10/0
[Ac und]
+11.5 +7.0 74 +9 +10 1030.1 987.6
09 18.08 ЮВ 3
{8}
50 км 10/0
[Ac und]
+8.1 +4.6 79 +5 +5 1029.9 986.9 +12.9
12 18.08 В 3
{9}
50 км 10/0
[Ac und]
+6.5 +3.7 82 +3 +3 1030.9 987.5
15 18.08 В 2
{7}
50 км 6/0
[Ac und]
+2.4 -0.3 82 -1 -1 1030.6 986.6
18 18.08 ЮВ 2
{5}
20 км слаб. дождь 10/0
[As op]
+5.7 +3.8 88 +3 +3 1029.4 986.1
21 18.08 штиль 0
{5}
50 км {дождь} 10/0
[As op]
+6.9 +4.1 82 +6 +7 1028.9 985.7 +2.4 0.3
00 19.08 штиль 0
{3}
50 км {дождь} 10/6 600 м
[Sc As op]
+12.8 +8.8 77 +12 +13 1027.4 985.1
03 19.08 СЗ 2
{5}
50 км 10/10 600 м
[Sc]
+15.5 +8.4 63 +15 +15 1028.2 986.4
06 19.08 СЗ 2
{6}
50 км 5/5 600 м
[Sc]
+13.7 +7.8 68 +13 +14 1027.2 985.1
09 19.08 штиль 0
{5}
50 км 8/8 600 м
[Sc]
+10.8 +5.1 68 +10 +10 1026.8 984.3 +16.3
12 19.08
{3}
50 км 8/8 600 м
[Sc]
+7.6 +4.6 81 1026.5 983.6
15 19.08 штиль 0
{2}
50 км 3/0
[Ac lent]
+2.9 +0.6 85 +2 +2 1027.5 983.8
18 19.08 ЮВ 1
{4}
50 км ясно +0.9 +0.1 94 -1 -1 1028.3 984.2
21 19.08 В 1
{5}
50 км ясно +8.5 +6.1 85 +8 +12 1026.8 983.9 +0.9
00 20.08 Ю 1
{4}
50 км ясно +17.3 +8.9 58 +18 +26 1023.9 972.5
03 20.08 штиль 0
{4}
50 км 5/5 1000 м
[Cu med, cong Cs]
+20.8 +7.7 43 +22 +25 комфорт 1021.8 980.9
06 20.08 СВ 2
{4}
50 км 10/0
[Cs]
+21.3 +8.2 43 +22 +24 комфорт 1020.4 979.7
09 20.08 ЮВ 1
{6}
50 км 6/0
[As trans Cs]
+16.3 +8.8 61 +17 +17 1021.3 979.7 +21.6
12 20.08 ЮВ 1
{6}
50 км 8/0
[As op]
+12.5 +8.0 74 +13 +13 1022.3 980.4
15 20.08 штиль 0
{5}
50 км ясно +6.2 +5.4 95 +5 +5 1023.3 980.2
18 20.08 штиль 0
{2}
50 км 5/0
[Ci sp]
+3.8 +3.8 100 +3 +3 1023.2 979.8
21 20.08 штиль 0
{2}
50 км 9/0
[As trans Cs]
+10.1 +7.3 83 +9 +12 1021.1 978.7 +2.6
00 21.08 штиль 0
{3}
50 км 10/0
[Cs]
+18.2 +9.3 56 +18 +26 1017.9 976.8
03 21.08 СЗ 1
{3}
50 км 9/5 1000 м
[Cu med, cong Cs]
+21.8 +9.0 44 +23 +26 комфорт 1015.3 974.8
06 21.08 штиль 0
{5}
50 км 10/6 1000 м
[Cu med, cong Cs]
+21.9 +7.7 40 +23 +24 комфорт 1014.0 973.5
09 21.08 штиль 0
{4}
50 км 10/6 1000 м
[Cu med, cong Cs]
+13.7 +9.7 77 +13 +13 1014.7 973.1 +22.6
12 21.08 ЮЗ 1
{2}
50 км 5/0 1000 м
[As trans Cs]
+6.3 +5.7 96 +5 +5 1016.3 973.5
15 21.08 штиль 0
{2}
50 км 9/0
[Ac und]
+3.7 +3.7 100 +2 +2 1016.7 973.5
18 21.08 штиль 0
{1}
50 км ясно +1.3 +1.3 100 -0 0 1017.5 973.9
21 21.08 штиль 0
{1}
50 км 6/0
[Ac und]
+11.4 +7.3 76 +11 +13 1016.6 974.5 +1.0
00 22.08 С 2
{6}
50 км 4/3 1000 м
[Cu med, cong Cs]
+17.8 +4.4 41 +18 +23 1015.3 974.3
03 22.08 СЗ 5
{10}
50 км 10/8 1000 м
[Sc Cs]
+18.4 +5.3 42 +18 +19 1015.6 974.6
06 22.08 С 5
{9}
50 км 10/0
[Cs]
+17.6 +3.1 38 +17 +18 1016.1 974.9
09 22.08 штиль 0
{8}
20 км дым 10/0
[Cs]
+11.5 +4.9 64 +11 +11 1018.4 976.3 +19.5
12 22.08 В 1
{6}
20 км дым 10/0
[Cs]
+6.8 +3.9 82 +6 +6 1020.8 978.0
15 22.08 штиль 0
{5}
50 км 10/0
[Cs]
+3.9 +2.6 91 +3 +3 1022.5 979.1
18 22.08 штиль 0
{3}
50 км 6/0
[Cs]
+2.2 +1.6 96 +1 +1 1023.6 979.9
21 22.08 штиль 0
{2}
20 км дым 10/0
[Ac trans Cs]
+7.1 +2.8 74 +6 +9 1022.9 980.0 +1.4
00 23.08 В 3
{6}
50 км 3/0
[Cs]
+11.8 +2.8 54 +10 +15 1021.2 979.0
03 23.08 В 3
{5}
50 км 1/0
[Cs]
+15.8 +3.5 44 +15 +20 1019.3 977.7
06 23.08 В 3
{6}
50 км ясно +16.2 +4.2 45 +16 +17 1018.0 976.6
09 23.08 В 2
{8}
50 км ясно +11.5 +4.2 61 +11 +11 1018.7 976.6 +16.5
12 23.08 ЮВ 1
{6}
50 км ясно +3.1 +1.6 90 +1 +1 1020.0 976.6
15 23.08 штиль 0
{4}
50 км ясно -1.7 -1.7 100 -3 -3 1020.5 976.3
18 23.08 штиль 0
{2}
50 км ясно -2.1 -2.1 100 -4 -3 1019.7 975.3
21 23.08 штиль 0
{2}
50 км ясно +8.0 +3.4 73 +7 +11 1016.5 974.0 -3.4
00 24.08 В 1
{4}
50 км ясно +15.7 +5.8 52 +17 +24 1013.4 972.0
03 24.08 штиль 0
{4}
50 км ясно +18.6 +5.3 42 +19 +26 1011.6 970.9
06 24.08 штиль 0
{3}
50 км ясно +18.9 +4.0 37 +19 +21 1010.8 970.1
09 24.08 штиль 0 50 км 6/0
[Ac trans]
+10.9 +6.6 75 +10 +10 1010.1 968.3 +19.4
12 24.08 штиль 0
{3}
50 км 8/0
[Ac trans]
+5.2 +3.8 91 +4 +4 1010.7 968.0
15 24.08 штиль 0
{2}
50 км 8/0
[Ac trans]
+2.4 +2.1 98 +1 +1 1010.7 967.5
18 24.08 штиль 0
{2}
50 км 9/0
[Ac trans]
+4.1 +4.1 100 +3 +3 1010.2 967.3
21 24.08 штиль 0
{2}
50 км 10/0
[Ac und]
+7.9 +7.0 94 +7 +8 1009.2 967.0 +2.2
00 25.08 В 1
{2}
50 км 8/0
[Ac trans]
+15.1 +9.7 70 +16 +19 1008.0 966.0
03 25.08 ЮЗ 1
{5}
50 км 8/4 1000 м
[Cu med, cong Ac trans]
+23.1 +9.5 42 +25 +27 комфорт 1005.0 964.2

 

Местоположение метеостанции Илирней (Чукотка, Россия): широта 67.25 долгота 167.90 высота над уровнем моря 354 м.

В архиве по умолчанию представлена погода в Илирнее за последнюю неделю. Архивные данные за месяц целиком и за предыдущие месяцы, начиная с января 2011 года, Вы можете получить, выбрав интересующий диапазон дат из раскрывающегося списка и нажав кнопку "Ввод!".


*Определитесь, кто Вы:
робот инопланетянин человек

Внимание! Время в таблицах - всемирное. Для получения местного времени необходимо прибавить поправку, которая равна 12 ч.

Смотрите также архив погоды в соседних городах и на ближайших метеорологических станциях:

Погода в Билибино (Чукотка, Россия) (109 км)
Погода в Баимке (Чукотка, Россия) (180 км)
Погода в Островном (Чукотка, Россия) (187 км)
Погода в Чауне (Чукотка, Россия) (215 км)
Погода в Эньмувееме (Чукотка, Россия) (255 км)
Погода в Раучуе (Чукотка, Россия) (257 км)
Погода в Майской (Чукотка, Россия) (276 км)
Погода в Певеке (Чукотка, Россия) (288 км)
Погода на 21 км (Чукотка, Россия) (290 км)
Погода в Комсомольской (Чукотка, Россия) (291 км)

Пояснения к столбцам:

Ветер - указаны скорость ветра в м/с - средняя за 10 мин, порывы в срок и между сроками (в фигурных скобках) и направление, откуда дует ветер: С - северный, СВ - северо-восточный, В - восточный, ЮВ - юго-восточный, Ю - южный, ЮЗ - юго-западный, З - западный, СЗ - северо-западный.
Видимость - горизонтальная дальность видимости в метрах или километрах. При видимости от 1 до 10 км при отсутствии осадков обычно наблюдается дымка, при ухудшении видимости до 1 км и менее - туман. В сухую погоду видимость может ухудшаться дымом, пылью или мглою.
Явления - указаны атмосферные явления, наблюдавшиеся в срок или в последний час перед сроком; фигурными скобками обозначены явления, наблюдавшиеся между сроками (за 1-3 часа до срока); квадратными скобками обозначены град или гололедные отложения с указанием их диаметра в мм.
Облачность - указаны через наклонную черту общая и нижняя облачность в баллах и высота нижней границы облаков в метрах; квадратными скобками обозначены формы облаков: Ci - перистые, Cs - перисто-слоистые, Cc - перисто-кучевые, Ac - высококучевые, As - высокослоистые, Sc - слоисто-кучевые, Ns - слоисто-дождевые, Cu - кучевые, Cb - кучево-дождевые. Подробнее классификацию облаков см. в Атласе облаков (PDF).
T - Температура воздуха - температура, измеренная на высоте 2 м над землей.
Td - Температура точки росы - температура, при понижении до которой содержащийся в воздухе водяной пар достигнет насыщения.
f - Относительная влажность воздуха - влажноcть воздуха, измеренная на высоте 2 м над землей.
Te - Эффективная температура - температура, которую ощущает одетый по сезону человек в тени. Характеристика душности погоды. При расчете учитывается влияние влажности воздуха и скорости ветра на теплоощущения человека.
Tes - Эффективная температура на солнце - температура, которую ощущает человек, с поправкой на солнечный нагрев. Характеристика знойности погоды. Зависит от высоты солнца над горизонтом, облачности и скорости ветра. Ночью, в пасмурную погоду, а также при ветре 12 м/с и более поправка равна нулю.
P - Атмосферное давление - приведенное к уровню моря атмосферное давление.
Po - Атмосферное давление - измеренное на уровне метеостанции атмосферное давление.
Tmin - Минимальная температура - минимум температуры воздуха на высоте 2 м над землей.
Tmax - Максимальная температура - максимум температуры воздуха на высоте 2 м над землей.
R - Количество осадков - Количество выпавших осадков за период времени, мм. При наведении курсора мыши на число - период времени, за который выпало указанное количество осадков.
R24 - Количество осадков - Количество выпавших осадков за 24 часа, мм.
S - Снежный покров - Высота снежного покрова, см. При наведении курсора мыши на число - состояние снежного покрова и степень покрытия местности в баллах.